map of STY home
STY - Airport
Location
City:  Salto, Salto, Uruguay
Name:Nueva Hespérides International Airport
ICAO:SUSO
IATA:STY

Details
Type:Airport (Aerodrome, Airfield)
Use:Public/Civil, International (customs port of entry)
Latitude:31°26'19"S (-31.438480)
Longitude:57°59'07"W (-57.985293)
Datum:WGS 1984
Elevation:187 ft (57 m)
Variation:11.29°W (WMM2015v2 magnetic declination)
-0.17° annual change
Runways:2
Longest:5210 × 148 ft (1588 × 45 m), paved

Time
Time Zone:UTC-3
Local Time:

Weather
METAR:SUSO 041400Z 15009KT 9999 FEW020 23/15 Q1022
TAF:SUSO 041145Z 0412/0512 10008KT CAVOK TX27/0418Z TN15/0509Z

Related Locations
Nearby:
Farthest:PVG: 12432 mi / 20007 km
Shanghai [Pudong Intl], 31, CN

Find:

   beyond  
but within

Other Information
Maps:
NOTAMs:
Links:
Sources:

  
  • flag of Uruguay
  • flag of Salto
  

Sectional Chart

Flight Planning
at skyvector.com

Satellite Image

Google Maps Satellite view

 

Copyright © 2004-2019 Karl L. Swartz. All rights reserved.
The Great Circle Mapper name and logo are trademarks of the Great Circle Mapper.
All other trademarks mentioned herein belong to their respective owners.
Please see credits for attibutions and further copyright information.

  Follow gcmap on Facebook Follow gcmap on Twitter GCmap on LinkedIn

hCard Microformat

Geo Microformat